Terug naar catalogus

STARLINK-36133

ActiefCommunicatieVLEO
NORAD 66963·PAYLOAD·🇺🇸 United States

Gelanceerd Dec 8, 2025 vanaf Cape Canaveral Space Force Station

Loading…

Volgende Passages (komende 24 uur)

TLE

VersSource: CelesTrak SupGP

Epoch: Sep 15, 2026, 04:07 UTC

1 66963C 25288E   26258.17201389  .00009896  00000+0  35820-3 0  2589
2 66963  43.0040  33.4506 0001379 273.4572 141.7415 15.27594213    17

Volg STARLINK-36133 in realtime met AllMySat

Download on the App Store